This is the latest recevied weather packets stored in our database for station/object EA7URS-13. If no packets are shown the sender has not sent any weather packets the latest 10 day(s).
| Time | Temp. | Humidity | Pressure | Rain* | Wind** | Luminosity | Snow |
|---|---|---|---|---|---|---|---|
| 1788571467 | 29.44° C | 58% | 1010.1 hPa | 0 mm | - | 0 W/m² | - |
| 1788571164 | 29.44° C | 58% | 1010.1 hPa | 0 mm | - | 0 W/m² | - |
| 1788570863 | 29.44° C | 54% | 1009.9 hPa | 0 mm | - | 0 W/m² | - |
| 1788570563 | 29.44° C | 54% | 1009.9 hPa | 0 mm | - | 0 W/m² | - |
| 1788570261 | 30° C | 56% | 1010.1 hPa | 0 mm | - | 0 W/m² | - |
| 1788569959 | 30° C | 56% | 1010.1 hPa | 0 mm | - | 0 W/m² | - |
| 1788569659 | 31.11° C | 49% | 1010.2 hPa | 0 mm | - | 0 W/m² | - |
| 1788569357 | 31.11° C | 49% | 1010.2 hPa | 0 mm | - | 0 W/m² | - |
| 1788569056 | 29.44° C | 56% | 1010.4 hPa | 0 mm | - | 0 W/m² | - |
| 1788568755 | 29.44° C | 56% | 1010.4 hPa | 0 mm | - | 0 W/m² | - |
| 1788568454 | 30° C | 52% | 1010 hPa | 0 mm | - | 0 W/m² | - |
| 1788568153 | 30° C | 52% | 1010 hPa | 0 mm | - | 0 W/m² | - |
| 1788567852 | 29.44° C | 57% | 1010.5 hPa | 0 mm | - | 0 W/m² | - |
| 1788567551 | 29.44° C | 57% | 1010.5 hPa | 0 mm | - | 0 W/m² | - |
| 1788567263 | 28.89° C | 59% | 1010.8 hPa | 0 mm | - | 0 W/m² | - |
| 1788566949 | 28.89° C | 59% | 1010.8 hPa | 0 mm | - | 0 W/m² | - |
| 1788566647 | 30° C | 56% | 1010.2 hPa | 0 mm | - | 0 W/m² | - |
| 1788566346 | 30° C | 56% | 1010.2 hPa | 0 mm | - | 0 W/m² | - |
| 1788566045 | 29.44° C | 57% | 1010.4 hPa | 0 mm | - | 0 W/m² | - |
| 1788565744 | 29.44° C | 57% | 1010.4 hPa | 0 mm | - | 0 W/m² | - |
| 1788565443 | 30° C | 56% | 1010.3 hPa | 0 mm | - | 0 W/m² | - |
| 1788565142 | 30° C | 56% | 1010.3 hPa | 0 mm | - | 0 W/m² | - |
| 1788564841 | 30° C | 55% | 1010.2 hPa | 0 mm | - | 0 W/m² | - |
| 1788564540 | 30° C | 55% | 1010.2 hPa | 0 mm | - | 0 W/m² | - |
| 1788564239 | 30° C | 56% | 1010.6 hPa | 0 mm | - | 0 W/m² | - |
* Rain latest hour (hover to see other rain measurements)
** Current wind speed in m/s (hover to see current wind gust speed)